DW9246 Weather Reports


time (UTC)temp
C
wind
direction
speed
KPH
gust
KPH
rain 1hr
cm
rain 24hr
cm
rain mn
cm
humidity
%
barometer
mb
20210927065017 19 310 4.8 6.4 0.00 0.00 0.00 61 1020.4
20210927064017 18 329 6.4 11.3 0.00 0.00 0.00 60 1020.3
20210927063019 18 328 6.4 11.3 0.00 0.00 0.00 60 1020.1
20210927062018 18 322 6.4 11.3 0.00 0.00 0.00 60 1020.2
20210927061018 18 317 4.8 6.4 0.00 0.00 0.00 60 1020.2
20210927060018 18 317 4.8 6.4 0.00 0.00 0.00 60 1020.1
20210927055018 18 318 4.8 6.4 0.00 0.00 0.00 60 1019.9
20210927054025 18 320 3.2 4.8 0.00 0.00 0.00 61 1019.9
20210927053017 18 319 1.6 4.8 0.00 0.00 0.00 61 1019.8
20210927052012 18 319 3.2 4.8 0.00 0.00 0.00 61 1019.9
20210927051013 18 320 3.2 8.0 0.00 0.00 0.00 61 1019.9
20210927050014 18 301 6.4 11.3 0.00 0.00 0.00 61 1019.9
20210927045017 17 328 6.4 11.3 0.00 0.00 0.00 61 1019.9
20210927044013 17 333 4.8 8.0 0.00 0.00 0.00 66 1020.0
20210927043017 17 333 4.8 6.4 0.00 0.00 0.00 66 1019.9
20210927042017 17 334 4.8 8.0 0.00 0.00 0.00 66 1020.0
20210927041017 17 336 6.4 8.0 0.00 0.00 0.00 68 1020.0
20210927040018 17 339 4.8 8.0 0.00 0.00 0.00 70 1020.1
20210927035017 17 339 4.8 8.0 0.00 0.00 0.00 70 1020.0
20210927034017 17 338 6.4 8.0 0.00 0.00 0.00 70 1020.2
20210927033017 17 336 6.4 8.0 0.00 0.00 0.00 72 1020.1
20210927032018 17 333 4.8 8.0 0.00 0.00 0.00 73 1020.1
20210927031017 17 332 4.8 8.0 0.00 0.00 0.00 74 1020.2
20210927030017 17 332 4.8 8.0 0.00 0.00 0.00 75 1020.3
20210927025016 17 332 4.8 6.4 0.00 0.00 0.00 75 1020.3
20210927024013 17 333 4.8 8.0 0.00 0.00 0.00 74 1020.4
20210927023017 17 334 4.8 6.4 0.00 0.00 0.00 74 1020.5
20210927022017 18 334 4.8 6.4 0.00 0.00 0.00 74 1020.7
20210927021017 18 336 6.4 9.7 0.00 0.00 0.00 74 1020.9
20210927020013 18 339 6.4 9.7 0.00 0.00 0.00 74 1020.8
20210927015017 18 339 4.8 8.0 0.00 0.00 0.00 74 1021.0
20210927014017 18 336 4.8 8.0 0.00 0.00 0.00 74 1021.1
20210927013016 18 336 4.8 6.4 0.00 0.00 0.00 74 1021.1
20210927012017 18 335 4.8 8.0 0.00 0.00 0.00 74 1021.2
20210927011015 18 336 4.8 6.4 0.00 0.00 0.00 74 1021.3
20210927010018 18 335 4.8 8.0 0.00 0.00 0.00 73 1021.3
20210927005017 18 336 6.4 8.0 0.00 0.00 0.00 73 1021.4
20210927004017 18 339 6.4 8.0 0.00 0.00 0.00 74 1021.5
20210927003017 18 339 4.8 6.4 0.00 0.00 0.00 74 1021.5
20210927002017 18 339 4.8 8.0 0.00 0.00 0.00 73 1021.5
20210927001018 18 339 4.8 6.4 0.00 0.00 0.00 73 1021.6
20210927000019 18 344 4.8 8.0 0.00 0.00 0.00 73 1021.6
20210926235016 19 9 3.2 6.4 0.00 0.00 0.00 71 1021.7
20210926234017 19 10 3.2 6.4 0.00 0.00 0.00 72 1021.7
20210926233017 19 9 4.8 8.0 0.00 0.00 0.00 71 1021.7
20210926232017 20 9 4.8 8.0 0.00 0.00 0.00 71 1021.8
20210926231017 20 14 3.2 8.0 0.00 0.00 0.00 70 1021.8
20210926230018 20 24 4.8 9.7 0.00 0.00 0.00 70 1021.8
20210926225016 20 26 4.8 11.3 0.00 0.00 0.00 70 1021.8
20210926224016 20 28 4.8 8.0 0.00 0.00 0.00 69 1021.8
20210926223017 20 43 4.8 11.3 0.00 0.00 0.00 69 1021.8
20210926222015 20 49 4.8 9.7 0.00 0.00 0.00 69 1021.7
20210926221017 20 54 4.8 8.0 0.00 0.00 0.00 69 1021.7
20210926220017 20 54 4.8 8.0 0.00 0.00 0.00 69 1021.6
20210926215016 20 35 4.8 11.3 0.00 0.00 0.00 69 1021.6
20210926214016 20 53 3.2 8.0 0.00 0.00 0.00 69 1021.5
20210926213017 20 58 4.8 8.0 0.00 0.00 0.00 68 1021.4
20210926212017 20 40 3.2 6.4 0.00 0.00 0.00 66 1021.5
20210926211015 20 70 3.2 9.7 0.00 0.00 0.00 66 1021.5
20210926210018 20 69 4.8 9.7 0.00 0.00 0.00 64 1021.4
20210926205019 21 61 6.4 12.9 0.00 0.00 0.00 59 1021.3
20210926204017 20 81 6.4 14.5 0.00 0.00 0.00 51 1021.3
20210926203017 20 345 3.2 8.0 0.00 0.00 0.00 52 1021.0
20210926202017 20 346 6.4 8.0 0.00 0.00 0.00 52 1020.8
20210926201017 20 345 6.4 9.7 0.00 0.00 0.00 52 1020.7
20210926200019 20 347 6.4 9.7 0.00 0.00 0.00 51 1020.6
20210926195017 20 347 6.4 9.7 0.00 0.00 0.00 50 1020.5
20210926194015 21 345 6.4 8.0 0.00 0.00 0.00 50 1020.4
20210926193012 21 357 4.8 8.0 0.00 0.00 0.00 49 1020.3
20210926192016 21 1 6.4 9.7 0.00 0.00 0.00 48 1020.2
20210926191016 21 349 6.4 9.7 0.00 0.00 0.00 47 1020.2
20210926190012 21 333 4.8 9.7 0.00 0.00 0.00 46 1020.0
20210926185017 22 243 3.2 6.4 0.00 0.00 0.00 45 1019.8
20210926184016 23 147 3.2 11.3 0.00 0.00 0.00 45 1019.6
20210926183017 23 335 9.7 19.3 0.00 0.00 0.00 40 1019.4
20210926182016 23 332 11.3 17.7 0.00 0.00 0.00 43 1019.5
20210926181016 23 327 11.3 17.7 0.00 0.00 0.00 43 1019.3
20210926180017 23 332 11.3 17.7 0.00 0.00 0.00 45 1019.2
20210926175017 23 326 8.0 16.1 0.00 0.00 0.00 45 1019.2
20210926174017 23 323 6.4 11.3 0.00 0.00 0.00 44 1019.2
20210926173017 24 323 6.4 11.3 0.00 0.00 0.00 43 1019.2
20210926172017 25 314 9.7 19.3 0.00 0.00 0.00 41 1019.2
20210926171017 25 314 11.3 20.9 0.00 0.00 0.00 41 1019.2
20210926170017 25 317 12.9 24.1 0.00 0.00 0.00 40 1019.0
20210926165016 25 312 11.3 22.5 0.00 0.00 0.00 39 1019.1
20210926164017 25 314 12.9 22.5 0.00 0.00 0.00 40 1019.1
20210926163016 25 304 11.3 19.3 0.00 0.00 0.00 39 1019.0
20210926162017 25 297 11.3 19.3 0.00 0.00 0.00 39 1019.0
20210926161018 26 297 9.7 17.7 0.00 0.00 0.00 39 1019.0
20210926160017 26 297 14.5 24.1 0.00 0.00 0.00 38 1019.0
20210926155017 26 286 14.5 25.7 0.00 0.00 0.00 38 1018.8
20210926154017 26 294 17.7 29.0 0.00 0.00 0.00 38 1019.0
20210926153017 26 296 19.3 30.6 0.00 0.00 0.00 37 1018.9
20210926152018 26 297 14.5 25.7 0.00 0.00 0.00 37 1018.9
20210926151016 26 294 16.1 29.0 0.00 0.00 0.00 37 1018.8
20210926150017 26 305 14.5 22.5 0.00 0.00 0.00 33 1018.8
20210926145017 27 288 14.5 24.1 0.00 0.00 0.00 34 1018.8
20210926144016 27 289 11.3 17.7 0.00 0.00 0.00 34 1018.7
20210926143016 27 286 17.7 29.0 0.00 0.00 0.00 33 1018.8
20210926142018 27 273 16.1 29.0 0.00 0.00 0.00 32 1018.8
20210926141016 27 272 14.5 27.4 0.00 0.00 0.00 32 1018.8
20210926140018 26 272 14.5 27.4 0.00 0.00 0.00 35 1018.8
20210926135016 26 264 12.9 25.7 0.00 0.00 0.00 37 1018.9
20210926134016 26 307 11.3 20.9 0.00 0.00 0.00 38 1018.9
20210926133020 26 285 11.3 19.3 0.00 0.00 0.00 35 1018.8
20210926132016 26 288 14.5 27.4 0.00 0.00 0.00 32 1018.9
20210926131017 27 281 12.9 24.1 0.00 0.00 0.00 38 1018.9
20210926130011 27 281 8.0 14.5 0.00 0.00 0.00 35 1018.9
20210926125014 26 263 9.7 20.9 0.00 0.00 0.00 35 1019.0
20210926124016 26 235 9.7 19.3 0.00 0.00 0.00 35 1019.1
20210926123017 26 243 11.3 22.5 0.00 0.00 0.00 38 1019.3
20210926122016 26 237 14.5 24.1 0.00 0.00 0.00 39 1019.5
20210926121017 26 251 11.3 25.7 0.00 0.00 0.00 41 1019.5
20210926120015 26 284 11.3 22.5 0.00 0.00 0.00 39 1019.6
20210926115020 26 273 11.3 24.1 0.00 0.00 0.00 40 1019.7
20210926114016 26 292 11.3 19.3 0.00 0.00 0.00 38 1019.7
20210926113017 26 315 8.0 20.9 0.00 0.00 0.00 37 1019.8
20210926112016 26 337 9.7 20.9 0.00 0.00 0.00 36 1019.9
20210926111016 26 283 8.0 19.3 0.00 0.00 0.00 36 1020.0
20210926110016 26 151 8.0 24.1 0.00 0.00 0.00 35 1020.1
20210926105016 26 241 8.0 19.3 0.00 0.00 0.00 38 1019.9
20210926104016 26 198 6.4 12.9 0.00 0.00 0.00 36 1020.2
20210926103015 25 201 4.8 17.7 0.00 0.00 0.00 37 1020.2
20210926102016 25 104 6.4 17.7 0.00 0.00 0.00 38 1020.2
20210926101016 25 38 6.4 19.3 0.00 0.00 0.00 38 1020.2
20210926100016 25 296 11.3 25.7 0.00 0.00 0.00 39 1020.0
20210926095016 25 346 4.8 14.5 0.00 0.00 0.00 36 1020.1
20210926094018 25 161 3.2 9.7 0.00 0.00 0.00 39 1020.0
20210926093019 25 128 6.4 11.3 0.00 0.00 0.00 41 1019.9
20210926092016 25 153 8.0 17.7 0.00 0.00 0.00 41 1019.9
20210926091017 25 150 4.8 12.9 0.00 0.00 0.00 42 1019.8
20210926090017 25 178 1.6 9.7 0.00 0.00 0.00 39 1019.7
20210926085016 24 162 3.2 8.0 0.00 0.00 0.00 41 1019.7
20210926084016 24 196 4.8 8.0 0.00 0.00 0.00 42 1019.6
20210926083015 24 175 4.8 11.3 0.00 0.00 0.00 42 1019.5
20210926082016 23 132 3.2 6.4 0.00 0.00 0.00 43 1019.3
20210926081018 23 277 3.2 8.0 0.00 0.00 0.00 44 1019.3
20210926080016 23 287 6.4 17.7 0.00 0.00 0.00 45 1019.2
20210926075017 22 298 9.7 22.5 0.00 0.00 0.00 45 1019.1
20210926074017 22 324 8.0 17.7 0.00 0.00 0.00 46 1019.0
20210926073016 22 297 14.5 29.0 0.00 0.00 0.00 45 1019.0
20210926072016 22 294 16.1 29.0 0.00 0.00 0.00 46 1018.8
20210926071017 22 285 14.5 25.7 0.00 0.00 0.00 47 1018.9
20210926070015 22 287 12.9 25.7 0.00 0.00 0.00 47 1019.0